Regional Weather Roundup
Issued by NWS

Home | Current Version | Previous Version | Text Only | Print | Product List | Glossary On
Versions: 1 2 3 4 5 6 7 8 9 10 11 12 13 14 15 16 17 18 19 20 21 22 23 24 25 26 27 28 29 30 31 32 33 34 35 36 37 38 39 40 41 42 43 44 45 46 47 48 49 50
000
ASUS43 KDTX 251501
RWRMI
MICHIGAN HOURLY REGIONAL WEATHER ROUNDUP
NATIONAL WEATHER SERVICE DETROIT/PONTIAC MI
1100 AM EDT MON MAY 25 2015

NOTE: "FAIR" INDICATES FEW OR NO CLOUDS BELOW 12,000 FEET WITH NO
SIGNIFICANT WEATHER AND/OR OBSTRUCTION TO VISIBILITY.

MIZ047>049-052>055-059>063-066>070-074>076-081>083-251600-
SOUTHEAST LOWER MICHIGAN

CITY           SKY/WX    TMP DP  RH WIND       PRES   REMARKS
ADRIAN         CLOUDY    74  63  68 SW18G30   30.00F
ALMA           CLOUDY    74  65  71 S13G20    29.91F
ANN ARBOR      CLOUDY    74  64  71 S20G29    29.98F
BAD AXE        CLOUDY    73  61  64 SW15      29.95F
CARO           CLOUDY    75  63  65 S13G23    29.94F
DETROIT CITY   CLOUDY    72  62  71 S10       30.00F
DETROIT        CLOUDY    76  62  62 S18G28    30.00F
FLINT          CLOUDY    76  62  62 S9        29.96F
GROSSE ILE     CLOUDY    70  63  78 S9        30.00F
HILLSDALE      CLOUDY    75  63  65 SW12G26   29.99S
HOWELL         CLOUDY    73  62  68 S10       29.96F

CITY           SKY/WX    TMP DP  RH WIND       PRES   REMARKS
JACKSON        CLOUDY    74  64  71 SW12G24   29.96F
LAMBERTVILLE   CLOUDY    77  61  57 SW10G24   30.01F
LANSING        CLOUDY    73  63  70 S12       29.94F
LAPEER         DRIZZLE   73  60  62 SW14G22   29.98S
MASON          CLOUDY    71  62  72 S6        29.95F
MONROE         CLOUDY    75  61  60 SW16G22   29.99F
MT. CLEMENS    CLOUDY    74  63  68 SW14G23   29.98F
PONTIAC        CLOUDY    73  61  65 S8        29.97F
PORT HOPE        N/A     74  61  63 SW8       29.92F
PORT HURON     LGT RAIN  72  61  68 S9        30.00S
TRI CITIES     CLOUDY    77  62  59 S18G25    29.92F
MIDLAND        PTSUNNY   75  61  61 SW14      29.90F
TROY           CLOUDY    75  61  62 SW13G20   30.00F
SAGINAW HB     CLOUDY    77  61  57 SW17G24   29.92F
$$
MIZ043>046-050>051-056>058-064>065-071>073-077>080-251600-
SOUTHWEST LOWER MICHIGAN

CITY           SKY/WX    TMP DP  RH WIND       PRES   REMARKS
BATTLE CREEK   CLOUDY    75  63  66 S16G28    29.94S
BENTON HARBOR  PTSUNNY   73  65  75 S14G24    29.89S
BIG RAPIDS     CLOUDY    70  63  78 S8        29.87S
COLDWATER      CLOUDY    74  62  66 S16G24    29.96S
FREMONT        CLOUDY    71  65  81 S17G23    29.85F
HOLLAND        CLOUDY    76  64  66 SW26G35   29.88F
GRAND RAPIDS   LGT RAIN  74  65  73 S16G24    29.90F
IONIA          CLOUDY    75  62  64 SW22      29.89F
KALAMAZOO      CLOUDY    74  63  68 S24G37    29.92F
LUDINGTON      CLOUDY    71  65  80 S17G26    29.82F
MARSHALL       CLOUDY    74  62  66 SW16G31   29.94F
MOUNT PLEASANT PTSUNNY   75  64  67 S10G17    29.89S
MUSKEGON       PTSUNNY   72  63  73 S21G28    29.86F
SOUTH HAVEN    CLOUDY    74  64  71 SW13G25   29.89S
$$
MIZ016>042-251600-
NORTHERN LOWER MICHIGAN

CITY           SKY/WX    TMP DP  RH WIND       PRES   REMARKS
ALPENA         LGT RAIN  59  56  89 CALM      29.89F
BEAVER ISLAND  LGT RAIN  56  55  98 E6        29.82F
BELLAIRE       CLOUDY    68  63  85 S5        29.83F
CADILLAC       CLOUDY    66  62  87 S8        29.86F
CHARLEVOIX     CLOUDY    64  64 100 E3        29.85F FOG
FRANKFORT      LGT RAIN  71  62  73 S9G17     29.80F
GAYLORD        CLOUDY    65  64  97 S12       29.86F
HARBOR SPRINGS HVY RAIN  59  58  97 NE7       29.85F
HOUGHTON LAKE  CLOUDY    67  61  81 S9        29.89F
MANISTEE       CLOUDY    70  63  78 S10G16    29.82F
OSCODA         CLOUDY    67  60  78 SW7       29.90F
PELLSTON       CLOUDY    59  58  96 SE6       29.86F
ROGERS CITY    CLOUDY    50  50  99 E5        29.90F
TRAVERSE CITY  CLOUDY    72  64  76 VRB7G16   29.81F
$$
MIZ007>008-015-251600-
EASTERN UPPER MICHIGAN

CITY           SKY/WX    TMP DP  RH WIND       PRES   REMARKS
KINROSS        CLOUDY    55  54  94 E14       29.87F
MACKINAC ISLAN CLOUDY    50  50 100 E12G21    29.86F FOG
NEWBERRY       LGT RAIN  56  56  98 SE9G17    29.83F
S. S. MARIE    RAIN      56  54  93 SE9       29.88F FOG
$$
MIZ004>006-011>014-085-251600-
CENTRAL UPPER MICHIGAN

CITY           SKY/WX    TMP DP  RH WIND       PRES   REMARKS
MANISTIQUE     LGT RAIN  55  54  96 E14G20    29.80F
ESCANABA       CLOUDY    54  50  87 E12       29.76F
MENOMINEE      CLOUDY    54  52  94 SE7       29.73F VSB 1/2
SAWYER-GWINN   RAIN      57  55  94 SE5       29.77F
$$
MIZ001>003-009>011-084-251600-
WESTERN UPPER MICHIGAN

CITY           SKY/WX    TMP DP  RH WIND       PRES   REMARKS
IRON MOUNTAIN  LGT RAIN  57  55  93 E6        29.73F
HOUGHTON       LGT RAIN  51  50  96 E13       29.75F VSB 1/4
COPPER HARBOR    N/A     58  55  90 S7        29.79F
IRONWOOD       CLOUDY    57  55  94 E5        29.66F
$$

ABBREVIATIONS USED IN REMARKS
   TC - TEMPERATURE IN CELSIUS
  WCI - WIND CHILL INDEX
   HX - HEAT INDEX
  VSB - VISIBILITY




USA.gov is the U.S. government's official web portal to all federal, state and local government web resources and services.